GW2326 Weather Reports


time (UTC)temp
C
wind
direction
speed
KPH
gust
KPH
rain 1hr
cm
rain 24hr
cm
rain mn
cm
humidity
%
barometer
mb
20260504034046 17 360 12.9 16.1 0.00 0.00 0.00 65 1017.6
20260504033548 17 360 11.3 14.5 0.00 0.00 0.00 65 1017.6
20260504033105 18 360 11.3 14.5 0.00 0.00 0.00 64 1017.6
20260504032548 18 360 11.3 14.5 0.00 0.00 0.00 64 1017.6
20260504032049 18 360 8.0 14.5 0.00 0.00 0.00 64 1017.6
20260504031608 18 360 8.0 14.5 0.00 0.00 0.00 65 1017.5
20260504031049 18 360 8.0 12.9 0.00 0.00 0.00 65 1017.5
20260504030549 18 360 9.7 12.9 0.00 0.00 0.00 64 1017.4
20260504030114 18 360 8.0 9.7 0.00 0.00 0.00 64 1017.4
20260504025549 18 360 8.0 14.5 0.00 0.00 0.00 63 1017.6
20260504025050 18 360 8.0 16.1 0.00 0.00 0.00 61 1017.7
20260504024554 19 360 9.7 16.1 0.00 0.00 0.00 60 1017.4
20260504024048 19 360 12.9 16.1 0.00 0.00 0.00 60 1017.3
20260504023548 19 360 12.9 16.1 0.00 0.00 0.00 60 1017.3
20260504023054 19 360 12.9 16.1 0.00 0.00 0.00 60 1017.2
20260504022549 19 360 12.9 16.1 0.00 0.00 0.00 59 1017.3
20260504022048 19 360 12.9 17.7 0.00 0.00 0.00 59 1017.3
20260504021603 19 360 12.9 17.7 0.00 0.00 0.00 59 1017.3
20260504021052 20 360 12.9 16.1 0.00 0.00 0.00 59 1017.4
20260504020549 20 360 11.3 16.1 0.00 0.00 0.00 58 1017.3
20260504020053 20 360 9.7 12.9 0.00 0.00 0.00 57 1017.2
20260504015550 20 360 8.0 12.9 0.00 0.00 0.00 56 1017.3
20260504015051 20 360 6.4 12.9 0.00 0.00 0.00 55 1017.4
20260504014554 20 360 6.4 12.9 0.00 0.00 0.00 54 1017.3
20260504014049 21 360 9.7 16.1 0.00 0.00 0.00 53 1017.2
20260504013549 21 181 9.7 16.1 0.00 0.00 0.00 52 1017.2
20260504013055 21 194 11.3 16.1 0.00 0.00 0.00 52 1017.1
20260504012550 21 360 11.3 16.1 0.00 0.00 0.00 51 1017.2
20260504012048 22 173 11.3 19.3 0.00 0.00 0.00 50 1017.1
20260504011553 22 184 14.5 19.3 0.00 0.00 0.00 48 1017.1
20260504011047 22 170 12.9 19.3 0.00 0.00 0.00 47 1017.2
20260504010549 22 190 12.9 17.7 0.00 0.00 0.00 47 1017.2
20260504010054 22 360 14.5 19.3 0.00 0.00 0.00 46 1017.3
20260504005550 22 360 14.5 22.5 0.00 0.00 0.00 46 1017.3
20260504005050 22 360 16.1 22.5 0.00 0.00 0.00 46 1017.3
20260504004553 22 360 16.1 24.1 0.00 0.00 0.00 45 1017.2
20260504004049 23 173 17.7 27.4 0.00 0.00 0.00 45 1017.2
20260504003549 23 165 17.7 27.4 0.00 0.00 0.00 44 1017.2
20260504003056 23 172 14.5 25.7 0.00 0.00 0.00 43 1017.2
20260504002549 23 170 16.1 25.7 0.00 0.00 0.00 43 1017.2
20260504002049 23 165 17.7 27.4 0.00 0.00 0.00 43 1017.2
20260504001556 23 167 17.7 27.4 0.00 0.00 0.00 42 1017.3
20260504001050 23 188 14.5 20.9 0.00 0.00 0.00 42 1017.4
20260504000550 23 198 16.1 37.0 0.00 0.00 0.00 41 1017.4
20260504000136 23 191 19.3 37.0 0.00 0.00 0.00 41 1017.6
20260503235549 23 167 22.5 37.0 0.00 0.00 0.00 40 1017.7
20260503235050 23 225 19.3 38.6 0.00 0.00 0.00 39 1017.6
20260503234554 23 200 22.5 40.2 0.00 0.00 0.00 40 1017.5
20260503234050 23 190 24.1 40.2 0.00 0.00 0.00 39 1017.7
20260503233550 24 213 20.9 30.6 0.00 0.00 0.00 39 1017.7
20260503233054 24 214 17.7 27.4 0.00 0.00 0.00 39 1017.9
20260503232553 24 213 16.1 27.4 0.00 0.00 0.00 40 1017.9
20260503232049 24 169 17.7 27.4 0.00 0.00 0.00 40 1017.8
20260503231558 24 213 14.5 37.0 0.00 0.00 0.00 40 1017.8
20260503231050 24 194 20.9 37.0 0.00 0.00 0.00 37 1017.8
20260503230550 24 214 16.1 37.0 0.00 0.00 0.00 38 1017.8
20260503230055 24 176 22.5 37.0 0.00 0.00 0.00 38 1017.7
20260503225549 24 178 22.5 33.8 0.00 0.00 0.00 39 1017.9
20260503225049 24 165 16.1 29.0 0.00 0.00 0.00 37 1017.8
20260503224553 24 187 17.7 29.0 0.00 0.00 0.00 37 1018.0
20260503224049 24 198 17.7 32.2 0.00 0.00 0.00 37 1018.1
20260503223549 24 198 16.1 32.2 0.00 0.00 0.00 37 1018.1
20260503223054 24 167 22.5 32.2 0.00 0.00 0.00 38 1018.3
20260503222549 24 166 17.7 32.2 0.00 0.00 0.00 37 1018.3
20260503222049 24 208 17.7 35.4 0.00 0.00 0.00 37 1018.5
20260503221602 24 175 17.7 35.4 0.00 0.00 0.00 37 1018.4
20260503221052 24 215 19.3 35.4 0.00 0.00 0.00 37 1018.3
20260503220550 24 231 17.7 32.2 0.00 0.00 0.00 37 1018.3
20260503220056 24 169 16.1 29.0 0.00 0.00 0.00 37 1018.4
20260503215549 24 172 16.1 33.8 0.00 0.00 0.00 37 1018.4
20260503215049 24 188 20.9 38.6 0.00 0.00 0.00 36 1018.4
20260503214552 24 185 19.3 38.6 0.00 0.00 0.00 36 1018.4
20260503214051 25 171 20.9 38.6 0.00 0.00 0.00 36 1018.7
20260503213549 25 221 14.5 29.0 0.00 0.00 0.00 36 1018.7
20260503213054 24 219 19.3 29.0 0.00 0.00 0.00 37 1018.9
20260503212550 24 202 14.5 29.0 0.00 0.00 0.00 40 1019.2
20260503212050 24 224 19.3 30.6 0.00 0.00 0.00 38 1019.1
20260503211601 24 228 16.1 30.6 0.00 0.00 0.00 37 1019.3
20260503211049 24 196 12.9 35.4 0.00 0.00 0.00 37 1019.3
20260503210550 24 167 17.7 35.4 0.00 0.00 0.00 38 1019.4
20260503210053 24 209 20.9 46.7 0.00 0.00 0.00 37 1019.6
20260503205550 25 245 17.7 46.7 0.00 0.00 0.00 36 1019.7
20260503205053 24 168 16.1 27.4 0.00 0.00 0.00 37 1019.6
20260503204556 24 188 16.1 35.4 0.00 0.00 0.00 36 1019.8
20260503204049 24 182 20.9 35.4 0.00 0.00 0.00 37 1020.0
20260503203552 24 187 20.9 38.6 0.00 0.00 0.00 37 1020.0
20260503203057 24 195 20.9 38.6 0.00 0.00 0.00 37 1020.1
20260503202549 24 201 14.5 30.6 0.00 0.00 0.00 37 1020.1
20260503202053 24 225 20.9 32.2 0.00 0.00 0.00 38 1020.3
20260503201551 24 218 17.7 38.6 0.00 0.00 0.00 38 1020.4
20260503201051 24 181 14.5 38.6 0.00 0.00 0.00 39 1020.7
20260503200551 24 225 17.7 38.6 0.00 0.00 0.00 38 1020.5
20260503200058 24 192 19.3 38.6 0.00 0.00 0.00 39 1020.8
20260503195549 24 194 16.1 32.2 0.00 0.00 0.00 38 1020.7
20260503195050 24 238 17.7 43.5 0.00 0.00 0.00 39 1020.9
20260503194603 24 217 24.1 43.5 0.00 0.00 0.00 38 1020.8
20260503194050 24 179 22.5 37.0 0.00 0.00 0.00 40 1021.1
20260503193550 23 190 12.9 46.7 0.00 0.00 0.00 38 1021.2
20260503193059 24 231 20.9 51.5 0.00 0.00 0.00 38 1021.4
20260503192549 24 221 20.9 51.5 0.00 0.00 0.00 40 1021.4
20260503192049 23 213 12.9 35.4 0.00 0.00 0.00 39 1021.3
20260503191554 23 192 20.9 35.4 0.00 0.00 0.00 39 1021.7
20260503191052 23 173 14.5 29.0 0.00 0.00 0.00 40 1021.5
20260503190551 23 175 16.1 38.6 0.00 0.00 0.00 41 1021.8
20260503190057 23 232 19.3 38.6 0.00 0.00 0.00 40 1021.8
20260503185549 23 171 20.9 37.0 0.00 0.00 0.00 40 1022.0
20260503185049 23 173 20.9 37.0 0.00 0.00 0.00 40 1022.0
20260503184605 23 171 17.7 37.0 0.00 0.00 0.00 40 1022.0
20260503184050 23 159 24.1 41.8 0.00 0.00 0.00 38 1022.0
20260503183549 23 157 20.9 41.8 0.00 0.00 0.00 41 1022.0
20260503183101 23 191 25.7 38.6 0.00 0.00 0.00 40 1022.1
20260503182549 23 148 14.5 29.0 0.00 0.00 0.00 41 1022.2
20260503182049 23 184 14.5 27.4 0.00 0.00 0.00 42 1022.4
20260503181557 23 169 16.1 29.0 0.00 0.00 0.00 41 1022.4
20260503181050 23 215 17.7 38.6 0.00 0.00 0.00 40 1022.6
20260503180550 23 215 19.3 38.6 0.00 0.00 0.00 38 1022.8
20260503180057 22 219 16.1 33.8 0.00 0.00 0.00 40 1022.7
20260503175550 22 179 25.7 33.8 0.00 0.00 0.00 40 1023.0
20260503175050 22 175 14.5 29.0 0.00 0.00 0.00 39 1023.2
20260503174553 22 203 19.3 29.0 0.00 0.00 0.00 42 1023.2
20260503174049 22 235 19.3 29.0 0.00 0.00 0.00 43 1023.2
20260503173553 22 231 14.5 30.6 0.00 0.00 0.00 42 1023.3
20260503173056 22 223 19.3 30.6 0.00 0.00 0.00 42 1023.3
20260503172549 22 223 19.3 30.6 0.00 0.00 0.00 42 1023.6
20260503172050 22 246 16.1 27.4 0.00 0.00 0.00 44 1023.5
20260503171610 22 360 16.1 35.4 0.00 0.00 0.00 45 1023.4
20260503171053 22 225 22.5 35.4 0.00 0.00 0.00 43 1023.7
20260503170550 22 252 19.3 33.8 0.00 0.00 0.00 45 1023.7
20260503170105 22 228 19.3 29.0 0.00 0.00 0.00 45 1023.8
20260503150547 18 360 17.7 27.4 0.00 0.00 0.00 64 1025.0
20260503131047 12 360 8.0 14.5 0.00 0.00 0.00 81 1024.0
20260503130549 12 360 6.4 12.9 0.00 0.00 0.00 82 1024.0
20260503110550 10 360 9.7 14.5 0.00 0.00 0.00 84 1023.2
20260503090107 11 360 8.0 14.5 0.00 0.00 0.00 83 1023.4
20260503081551 12 360 3.2 8.0 0.00 0.00 0.00 81 1023.4
20260503081050 12 360 4.8 9.7 0.00 0.00 0.00 81 1023.4
20260503080550 12 360 4.8 9.7 0.00 0.00 0.00 81 1023.4
20260503072553 12 360 4.8 8.0 0.00 0.00 0.00 83 1023.4
20260503072051 12 360 4.8 9.7 0.00 0.00 0.00 83 1023.4
20260503071606 12 360 6.4 9.7 0.00 0.00 0.00 83 1023.3
20260503071047 12 360 6.4 9.7 0.00 0.00 0.00 84 1023.4
20260503070550 12 360 6.4 8.0 0.00 0.00 0.00 85 1023.4
20260503055049 13 360 4.8 8.0 0.00 0.00 0.00 82 1023.8
20260503054600 13 360 4.8 6.4 0.00 0.00 0.00 82 1023.8
20260503054049 13 360 3.2 4.8 0.00 0.00 0.00 82 1023.7
20260503053550 13 360 3.2 6.4 0.00 0.00 0.00 82 1023.8
20260503053051 13 360 3.2 6.4 0.00 0.00 0.00 82 1023.8
20260503052552 13 360 4.8 6.4 0.00 0.00 0.00 81 1023.8
20260503052048 13 360 3.2 4.8 0.00 0.00 0.00 81 1023.7
20260503051551 13 360 3.2 8.0 0.00 0.00 0.00 80 1023.7
20260503051048 13 360 3.2 8.0 0.00 0.00 0.00 80 1023.6
20260503050550 13 360 4.8 8.0 0.00 0.00 0.00 80 1023.6
20260503050054 13 360 6.4 8.0 0.00 0.00 0.00 80 1023.5
20260503045550 14 360 4.8 8.0 0.00 0.00 0.00 80 1023.5
20260503045046 14 360 4.8 8.0 0.00 0.00 0.00 79 1023.6
20260503044554 14 360 4.8 8.0 0.00 0.00 0.00 79 1023.7
20260503044049 14 360 4.8 8.0 0.00 0.00 0.00 79 1023.7
20260503043554 14 360 4.8 6.4 0.00 0.00 0.00 78 1023.7
20260503043051 15 360 4.8 8.0 0.00 0.00 0.00 78 1023.8
20260503042553 15 360 3.2 8.0 0.00 0.00 0.00 77 1023.9
20260503042050 15 360 6.4 9.7 0.00 0.00 0.00 76 1023.9
20260503041554 15 360 6.4 9.7 0.00 0.00 0.00 75 1024.0
20260503041049 15 360 6.4 9.7 0.00 0.00 0.00 75 1023.9
20260503040549 15 360 6.4 9.7 0.00 0.00 0.00 75 1023.8
20260503040054 15 360 6.4 9.7 0.00 0.00 0.00 74 1023.8
20260503035549 15 360 6.4 9.7 0.00 0.00 0.00 74 1023.8
20260503035049 15 360 4.8 8.0 0.00 0.00 0.00 74 1023.7
20260503034556 15 360 4.8 6.4 0.00 0.00 0.00 74 1023.4